Torna al catalogo

USA 170

AttivoMilitareGEO
NORAD 27875·PAYLOAD·🇺🇸 United States

Lanciato Aug 29, 2003 da Cape Canaveral Space Force Station

Loading…

TLE

AggiornatoSource: Space-Track

Epoca: Sep 14, 2026, 13:55 UTC

1 27875U 03040A   26257.57986770  .00000119  00000-0  00000+0 0  9997
2 27875  10.6864  47.0748 0001507 158.9126  20.4350  1.00270982 33897

Traccia USA 170 in tempo reale con AllMySat

Download on the App Store